Location: Raitis
(47.2167°N, 11.3833°E)
Time: 11:28:47
(UTC+00:00)

Meteor 2-4 Rocket - Pass Details

Date: 03 March 2021
Orbit: 799 x 908 km, 81.2° (Epoch: 23 April)

Event Time Altitude Azimuth Distance (km) Brightness Sun altitude
Rises 18:45:35 0° 346° (NNW) 3,489 7.2 -18.2°
Reaches altitude 10° 18:48:02 10° 344° (NNW) 2,560 6.5 -18.6°
Maximum altitude 18:53:49 66° 263° (W) 977 4.2 -19.6°
Drops below altitude 10° 18:59:40 10° 182° (S) 2,583 6.1 -20.5°
Sets 19:02:09 0° 180° (S) 3,523 6.8 -20.9°
